FW3936 Weather Reports


Display with metric or nautical units.
time (UTC)temp
F
wind
direction
speed
MPH
gust
MPH
rain 1hr
in
rain 24hr
in
rain mn
in
humidity
%
barometer
mb
20260904215536 89 121 3.0 9.0 0.00 0.00 0.00 54 1013.2
20260904215035 90 135 5.0 9.0 0.00 0.00 0.00 54 1013.3
20260904214536 89 107 2.0 8.0 0.00 0.00 0.00 55 1013.5
20260904214033 88 98 2.0 11.0 0.00 0.00 0.00 57 1013.6
20260904213533 89 94 4.0 11.0 0.00 0.00 0.00 57 1013.6
20260904213033 88 96 1.0 7.0 0.00 0.00 0.00 57 1013.7
20260904212531 88 101 1.0 5.0 0.00 0.00 0.00 58 1013.8
20260904212032 87 100 0.0 6.0 0.00 0.00 0.00 59 1013.9
20260904211530 87 96 1.0 7.0 0.00 0.00 0.00 58 1014.1
20260904211029 87 94 2.0 9.0 0.00 0.00 0.00 59 1014.0
20260904210529 87 111 2.0 9.0 0.00 0.00 0.00 59 1014.1
20260904210028 87 112 3.0 9.0 0.00 0.00 0.00 58 1014.1
20260904205529 87 115 2.0 7.0 0.00 0.00 0.00 60 1014.1
20260904205028 87 115 1.0 5.0 0.00 0.00 0.00 60 1014.1
20260904204532 87 115 1.0 7.0 0.00 0.00 0.00 61 1014.2
20260904204028 87 115 3.0 7.0 0.00 0.00 0.00 61 1014.3
20260904203528 87 115 3.0 7.0 0.00 0.00 0.00 61 1014.3
20260904203026 87 116 2.0 7.0 0.00 0.00 0.00 62 1014.3
20260904202528 87 117 1.0 4.0 0.00 0.00 0.00 61 1014.3
20260904202024 87 117 1.0 4.0 0.00 0.00 0.00 61 1014.3
20260904201524 87 117 1.0 4.0 0.00 0.00 0.00 60 1014.4
20260904201023 88 117 1.0 4.0 0.00 0.00 0.00 59 1014.4
20260904200523 88 117 1.0 5.0 0.00 0.00 0.00 59 1014.5
20260904200026 88 117 2.0 5.0 0.00 0.00 0.00 59 1014.6
20260904195526 88 117 0.0 4.0 0.00 0.00 0.00 58 1014.6
20260904195021 88 117 1.0 5.0 0.00 0.00 0.00 60 1014.6
20260904194520 88 117 1.0 8.0 0.00 0.00 0.00 60 1014.6
20260904194018 87 118 2.0 7.0 0.00 0.00 0.00 61 1014.6
20260904193518 87 105 2.0 5.0 0.00 0.00 0.00 62 1014.7
20260904193017 86 105 2.0 5.0 0.00 0.00 0.00 62 1014.8
20260904192516 86 105 1.0 5.0 0.00 0.00 0.00 63 1014.8
20260904192016 86 105 2.0 7.0 0.00 0.00 0.00 63 1014.9
20260904191523 86 105 1.0 7.0 0.00 0.00 0.00 62 1014.9
20260904191016 86 105 2.0 7.0 0.00 0.00 0.00 63 1015.0
20260904190516 86 105 2.0 5.0 0.00 0.00 0.00 63 1015.0
20260904190015 87 105 2.0 5.0 0.00 0.00 0.00 62 1015.0
20260904185515 87 104 2.0 7.0 0.00 0.00 0.00 63 1015.0
20260904185014 87 103 2.0 7.0 0.00 0.00 0.00 62 1015.1
20260904184514 87 103 2.0 8.0 0.00 0.00 0.00 63 1015.2
20260904184013 87 116 2.0 9.0 0.00 0.00 0.00 63 1015.2
20260904183513 86 117 4.0 10.0 0.00 0.00 0.00 63 1015.2
20260904183011 86 107 4.0 9.0 0.00 0.00 0.00 63 1015.3
20260904182510 86 111 2.0 0.0 0.00 0.00 0.00 63 1015.3
20260904182010 86 117 2.0 7.0 0.00 0.00 0.00 63 1015.3
20260904181510 86 117 0.0 5.0 0.00 0.00 0.00 63 1015.4
20260904181009 86 117 1.0 8.0 0.00 0.00 0.00 63 1015.5
20260904180509 86 117 3.0 8.0 0.00 0.00 0.00 63 1015.4
20260904180008 86 119 3.0 8.0 0.00 0.00 0.00 63 1015.5
20260904175506 86 121 0.0 5.0 0.00 0.00 0.00 63 1015.5
20260904175005 85 121 1.0 8.0 0.00 0.00 0.00 63 1015.5
20260904174505 85 122 2.0 7.0 0.00 0.00 0.00 64 1015.5
20260904174003 85 128 2.0 7.0 0.00 0.00 0.00 65 1015.6
20260904173505 85 131 3.0 6.0 0.00 0.00 0.00 64 1015.7
20260904173007 85 131 2.0 5.0 0.00 0.00 0.00 63 1015.7
20260904172503 85 130 2.0 5.0 0.00 0.00 0.00 64 1015.8
20260904172002 84 130 2.0 7.0 0.00 0.00 0.00 64 1015.8
20260904171502 85 131 1.0 7.0 0.00 0.00 0.00 64 1015.9
20260904171001 85 123 2.0 7.0 0.00 0.00 0.00 64 1016.0
20260904170600 85 121 1.0 7.0 0.00 0.00 0.00 65 1016.0
20260904170059 84 120 3.0 7.0 0.00 0.00 0.00 65 1015.9
20260904165602 84 119 1.0 4.0 0.00 0.00 0.00 66 1016.0
20260904165101 84 119 0.0 7.0 0.00 0.00 0.00 67 1016.0
20260904164614 84 119 2.0 7.0 0.00 0.00 0.00 67 1016.1
20260904164058 84 119 2.0 7.0 0.00 0.00 0.00 68 1016.1
20260904163558 84 119 1.0 4.0 0.00 0.00 0.00 68 1016.0
20260904163100 84 119 1.0 7.0 0.00 0.00 0.00 67 1016.0
20260904162557 84 120 1.0 8.0 0.00 0.00 0.00 68 1016.1
20260904162056 84 120 2.0 8.0 0.00 0.00 0.00 68 1016.2
20260904161554 83 121 2.0 5.0 0.00 0.00 0.00 69 1016.3
20260904161052 83 121 0.0 5.0 0.00 0.00 0.00 69 1016.2
20260904160552 83 121 1.0 5.0 0.00 0.00 0.00 69 1016.2
20260904160051 83 121 0.0 3.0 0.00 0.00 0.00 70 1016.2
20260904155550 82 121 0.0 5.0 0.00 0.00 0.00 70 1016.2
20260904155048 82 121 2.0 5.0 0.00 0.00 0.00 70 1016.1
20260904154547 82 121 1.0 5.0 0.00 0.00 0.00 71 1016.1
20260904154046 81 121 1.0 7.0 0.00 0.00 0.00 71 1016.0
20260904153546 81 121 3.0 7.0 0.00 0.00 0.00 71 1016.0
20260904153104 81 121 2.0 4.0 0.00 0.00 0.00 71 1016.0
20260904152544 81 121 1.0 3.0 0.00 0.00 0.00 71 1016.0
20260904152043 81 121 0.0 3.0 0.00 0.00 0.00 72 1015.9
20260904151546 80 121 1.0 4.0 0.00 0.00 0.00 72 1015.8
20260904151041 80 121 2.0 7.0 0.00 0.00 0.00 72 1015.8
20260904150540 80 121 1.0 8.0 0.00 0.00 0.00 72 1015.8
20260904150045 79 123 2.0 8.0 0.00 0.00 0.00 72 1015.8
20260904145539 79 122 1.0 4.0 0.00 0.00 0.00 71 1015.8
20260904145043 79 122 2.0 4.0 0.00 0.00 0.00 71 1015.7
20260904144538 79 122 0.0 4.0 0.00 0.00 0.00 71 1015.7
20260904144037 79 121 0.0 5.0 0.00 0.00 0.00 71 1015.8
20260904143536 79 122 1.0 5.0 0.00 0.00 0.00 71 1015.7
20260904143035 78 121 1.0 7.0 0.00 0.00 0.00 71 1015.7
20260904142534 78 122 2.0 7.0 0.00 0.00 0.00 71 1015.7
20260904142035 78 119 2.0 5.0 0.00 0.00 0.00 70 1015.6
20260904141534 78 119 1.0 5.0 0.00 0.00 0.00 70 1015.6
20260904141033 78 119 0.0 5.0 0.00 0.00 0.00 70 1015.6
20260904140532 78 119 1.0 5.0 0.00 0.00 0.00 70 1015.6
20260904140035 78 119 1.0 5.0 0.00 0.00 0.00 70 1015.5
20260904135532 78 119 2.0 5.0 0.00 0.00 0.00 70 1015.5
20260904135031 78 119 2.0 8.0 0.00 0.00 0.00 70 1015.5
20260904134535 78 120 2.0 8.0 0.00 0.00 0.00 70 1015.4
20260904134030 78 126 2.0 7.0 0.00 0.00 0.00 70 1015.3
20260904133530 78 120 2.0 7.0 0.00 0.00 0.00 69 1015.3
20260904133030 78 121 2.0 5.0 0.00 0.00 0.00 69 1015.3
20260904132529 77 120 1.0 7.0 0.00 0.00 0.00 69 1015.1
20260904132028 77 120 2.0 7.0 0.00 0.00 0.00 70 1015.2
20260904131539 77 128 1.0 4.0 0.00 0.00 0.00 70 1015.2
20260904131026 77 128 1.0 4.0 0.00 0.00 0.00 70 1015.3
20260904130528 77 128 2.0 5.0 0.00 0.00 0.00 70 1015.3
20260904130024 77 128 1.0 5.0 0.00 0.00 0.00 70 1015.1
20260904125524 77 128 1.0 5.0 0.00 0.00 0.00 70 1015.0
20260904125022 77 129 2.0 5.0 0.00 0.00 0.00 70 1014.8
20260904124521 77 129 2.0 5.0 0.00 0.00 0.00 71 1014.8
20260904124019 77 130 2.0 4.0 0.00 0.00 0.00 71 1014.8
20260904123520 77 130 1.0 4.0 0.00 0.00 0.00 71 1014.8
20260904123019 77 130 2.0 4.0 0.00 0.00 0.00 71 1014.7
20260904122518 77 130 2.0 4.0 0.00 0.00 0.00 71 1014.7
20260904122017 77 130 0.0 4.0 0.00 0.00 0.00 71 1014.7
20260904121517 77 130 2.0 5.0 0.00 0.00 0.00 71 1014.7
20260904121014 77 130 1.0 5.0 0.00 0.00 0.00 71 1014.6
20260904120514 77 130 0.0 5.0 0.00 0.00 0.00 71 1014.5
20260904120019 77 130 1.0 4.0 0.00 0.00 0.00 71 1014.4
20260904115513 77 130 1.0 6.0 0.00 0.00 0.00 71 1014.5
20260904115016 77 130 1.0 6.0 0.00 0.00 0.00 72 1014.3
20260904114513 77 130 1.0 4.0 0.00 0.00 0.00 72 1014.3
20260904114012 77 130 1.0 4.0 0.00 0.00 0.00 72 1014.2
20260904113513 77 130 1.0 6.0 0.00 0.00 0.00 72 1014.2
20260904113031 77 130 2.0 6.0 0.00 0.00 0.00 72 1014.0
20260904112512 77 131 1.0 6.0 0.00 0.00 0.00 72 1014.0
20260904112012 77 133 2.0 6.0 0.00 0.00 0.00 72 1014.1
20260904111512 77 134 1.0 4.0 0.00 0.00 0.00 72 1014.2
20260904111012 77 134 1.0 4.0 0.00 0.00 0.00 72 1014.3
20260904110512 77 134 1.0 4.0 0.00 0.00 0.00 72 1014.2
20260904110011 77 134 1.0 4.0 0.00 0.00 0.00 72 1014.1
20260904105511 77 134 1.0 3.0 0.00 0.00 0.00 72 1014.0
20260904105013 77 134 1.0 4.0 0.00 0.00 0.00 72 1014.1
20260904104511 77 134 1.0 4.0 0.00 0.00 0.00 72 1014.0
20260904104010 77 134 1.0 3.0 0.00 0.00 0.00 72 1013.9
20260904103511 77 134 1.0 4.0 0.00 0.00 0.00 72 1014.0
20260904103010 77 134 1.0 5.0 0.00 0.00 0.00 72 1014.0
20260904102511 77 134 1.0 5.0 0.00 0.00 0.00 72 1013.9
20260904102009 77 134 1.0 4.0 0.00 0.00 0.00 72 1013.9
20260904101510 77 134 1.0 5.0 0.00 0.00 0.00 72 1013.9
20260904101010 77 134 2.0 7.0 0.00 0.00 0.00 72 1013.8
20260904100509 77 134 2.0 7.0 0.00 0.00 0.00 72 1013.9
20260904100009 77 133 2.0 7.0 0.00 0.00 0.00 72 1013.7
20260904095509 77 133 1.0 6.0 0.00 0.00 0.00 72 1013.7
20260904095008 77 133 2.0 6.0 0.00 0.00 0.00 72 1013.8
20260904094523 77 133 1.0 5.0 0.00 0.00 0.00 72 1013.8
20260904094008 77 133 0.0 5.0 0.00 0.00 0.00 72 1013.9
20260904093509 77 133 1.0 5.0 0.00 0.00 0.00 72 1013.9
20260904093008 77 133 1.0 3.0 0.00 0.00 0.00 72 1013.8
20260904092510 77 133 1.0 6.0 0.00 0.00 0.00 72 1013.8
20260904092007 77 133 1.0 6.0 0.00 0.00 0.00 72 1013.7
20260904091507 77 133 1.0 3.0 0.00 0.00 0.00 72 1013.8
20260904091007 77 133 1.0 4.0 0.00 0.00 0.00 72 1013.8
20260904090505 77 133 1.0 5.0 0.00 0.00 0.00 72 1013.8
20260904090005 77 134 1.0 5.0 0.00 0.00 0.00 72 1013.8
20260904085505 77 133 0.0 5.0 0.00 0.00 0.00 72 1013.8
20260904085005 77 134 1.0 5.0 0.00 0.00 0.00 72 1013.8
20260904084506 77 134 2.0 4.0 0.00 0.00 0.00 72 1013.8
20260904084005 78 133 0.0 6.0 0.00 0.00 0.00 72 1013.7
20260904083506 78 133 1.0 6.0 0.00 0.00 0.00 72 1013.7
20260904083003 78 133 1.0 6.0 0.00 0.00 0.00 72 1013.7
20260904082503 78 134 2.0 5.0 0.00 0.00 0.00 72 1013.8
20260904082004 78 134 1.0 6.0 0.00 0.00 0.00 72 1013.9
20260904081505 78 134 2.0 6.0 0.00 0.00 0.00 72 1013.9
20260904081101 78 134 1.0 5.0 0.00 0.00 0.00 72 1013.9
20260904081001 78 134 1.0 5.0 0.00 0.00 0.00 72 1013.9
20260904080603 78 134 1.0 8.0 0.00 0.00 0.00 72 1013.9
20260904075601 78 133 1.0 6.0 0.00 0.00 0.00 72 1014.1
20260904075100 78 133 2.0 7.0 0.00 0.00 0.00 72 1014.0
20260904074600 78 132 1.0 7.0 0.00 0.00 0.00 72 1014.0
20260904074059 78 132 1.0 6.0 0.00 0.00 0.00 72 1014.1
20260904073659 78 132 1.0 4.0 0.00 0.00 0.00 72 1014.2
20260904073110 78 132 1.0 5.0 0.00 0.00 0.00 72 1014.2
20260904072558 78 132 1.0 4.0 0.00 0.00 0.00 72 1014.2
20260904072056 78 132 1.0 6.0 0.00 0.00 0.00 72 1014.3
20260904071557 78 132 1.0 7.0 0.00 0.00 0.00 72 1014.3
20260904071056 78 132 1.0 7.0 0.00 0.00 0.00 72 1014.4
20260904070557 78 133 2.0 6.0 0.00 0.00 0.00 72 1014.4
20260904070055 78 133 2.0 6.0 0.00 0.00 0.00 72 1014.4
20260904065556 79 134 2.0 6.0 0.00 0.00 0.00 72 1014.4
20260904065054 79 134 1.0 6.0 0.00 0.00 0.00 72 1014.5
20260904064555 79 134 2.0 6.0 0.00 0.00 0.00 72 1014.6
20260904064058 79 133 2.0 8.0 0.00 0.00 0.00 72 1014.6
20260904063553 79 133 2.0 8.0 0.00 0.00 0.00 72 1014.6
20260904063104 79 130 2.0 6.0 0.00 0.00 0.00 72 1014.6
20260904062553 79 130 2.0 7.0 0.00 0.00 0.00 72 1014.6
20260904062053 79 130 3.0 7.0 0.00 0.00 0.00 72 1014.5
20260904061552 79 120 1.0 7.0 0.00 0.00 0.00 71 1014.5
20260904061052 79 120 2.0 11.0 0.00 0.00 0.00 71 1014.5
20260904060553 79 123 2.0 11.0 0.00 0.00 0.00 71 1014.6
20260904055551 79 133 2.0 7.0 0.00 0.00 0.00 71 1014.5
20260904055050 79 132 2.0 7.0 0.00 0.00 0.00 71 1014.4
20260904054608 79 133 2.0 8.0 0.00 0.00 0.00 71 1014.4
20260904054049 79 131 2.0 8.0 0.00 0.00 0.00 71 1014.6
20260904053548 79 130 3.0 9.0 0.00 0.00 0.00 71 1014.4
20260904053048 79 128 3.0 9.0 0.00 0.00 0.00 71 1014.3
20260904052546 80 89 3.0 9.0 0.00 0.00 0.00 71 1014.3
20260904052046 80 131 2.0 8.0 0.00 0.00 0.00 71 1014.3
20260904051545 80 131 2.0 8.0 0.00 0.00 0.00 70 1014.3
20260904051042 80 130 2.0 10.0 0.00 0.00 0.00 70 1014.2
20260904050542 80 119 3.0 9.0 0.00 0.00 0.00 70 1014.2
20260904050043 80 130 2.0 9.0 0.00 0.00 0.00 70 1014.2
20260904045541 80 98 4.0 10.0 0.00 0.00 0.00 69 1014.3
20260904045041 81 128 4.0 15.0 0.00 0.00 0.00 69 1014.4
20260904044547 81 116 4.0 15.0 0.00 0.00 0.00 68 1014.2
20260904044040 81 121 3.0 8.0 0.00 0.00 0.00 68 1014.2
20260904043540 81 126 3.0 9.0 0.00 0.00 0.00 68 1014.2
20260904043044 81 130 2.0 9.0 0.00 0.00 0.00 68 1014.2
20260904042541 81 122 4.0 10.0 0.00 0.00 0.00 67 1014.2
20260904042040 81 130 3.0 9.0 0.00 0.00 0.00 67 1014.2
20260904041540 82 121 3.0 9.0 0.00 0.00 0.00 66 1014.1
20260904041038 82 121 3.0 7.0 0.00 0.00 0.00 66 1014.1
20260904040538 82 132 4.0 8.0 0.00 0.00 0.00 65 1014.1
20260904040040 82 135 3.0 13.0 0.00 0.00 0.00 65 1014.1
20260904035538 82 137 5.0 13.0 0.00 0.00 0.00 65 1014.2
20260904035038 82 138 4.0 8.0 0.00 0.00 0.00 65 1014.1
20260904034537 82 128 2.0 9.0 0.00 0.00 0.00 64 1014.1
20260904034037 82 105 3.0 9.0 0.00 0.00 0.00 64 1014.0
20260904033540 82 119 4.0 9.0 0.00 0.00 0.00 64 1014.0
20260904033038 82 119 2.0 9.0 0.00 0.00 0.00 63 1013.9
20260904032536 82 131 3.0 9.0 0.00 0.00 0.00 63 1013.7
20260904032036 83 111 2.0 5.0 0.00 0.00 0.00 63 1013.7
20260904031538 83 107 2.0 9.0 0.00 0.00 0.00 63 1013.7
20260904031035 83 116 2.0 7.0 0.00 0.00 0.00 63 1013.6
20260904030534 83 109 2.0 9.0 0.00 0.00 0.00 63 1013.6
20260904030034 83 103 3.0 9.0 0.00 0.00 0.00 62 1013.4
20260904025534 83 105 3.0 9.0 0.00 0.00 0.00 62 1013.3
20260904025034 83 113 3.0 9.0 0.00 0.00 0.00 62 1013.3
20260904024536 83 95 3.0 9.0 0.00 0.00 0.00 62 1013.2
20260904024033 83 119 2.0 11.0 0.00 0.00 0.00 62 1013.2
20260904023533 83 114 3.0 11.0 0.00 0.00 0.00 62 1013.1
20260904023033 83 101 3.0 10.0 0.00 0.00 0.00 61 1013.0
20260904022533 84 103 2.0 8.0 0.00 0.00 0.00 61 1013.1
20260904022033 84 102 2.0 8.0 0.00 0.00 0.00 61 1013.1
20260904021533 84 103 4.0 11.0 0.00 0.00 0.00 60 1013.0
20260904021032 84 113 5.0 11.0 0.00 0.00 0.00 60 1012.9
20260904020532 84 101 3.0 11.0 0.00 0.00 0.00 60 1012.8
20260904020032 84 111 3.0 11.0 0.00 0.00 0.00 59 1012.8
20260904015532 84 99 3.0 11.0 0.00 0.00 0.00 59 1012.7
20260904015035 85 103 4.0 10.0 0.00 0.00 0.00 58 1012.6
20260904014556 85 111 2.0 15.0 0.00 0.00 0.00 58 1012.6
20260904014031 85 69 5.0 13.0 0.00 0.00 0.00 58 1012.4
20260904013532 85 98 5.0 12.0 0.00 0.00 0.00 57 1012.5
20260904013033 85 117 5.0 16.0 0.00 0.00 0.00 57 1012.4
20260904012531 85 106 5.0 16.0 0.00 0.00 0.00 57 1012.3
20260904012031 85 107 6.0 15.0 0.00 0.00 0.00 58 1012.2
20260904011531 86 100 5.0 16.0 0.00 0.00 0.00 59 1012.1
20260904011031 86 68 5.0 15.0 0.00 0.00 0.00 59 1011.9
20260904010532 86 117 6.0 15.0 0.00 0.00 0.00 59 1011.9
20260904010030 86 102 6.0 17.0 0.00 0.00 0.00 58 1011.8
20260904005530 86 128 7.0 18.0 0.00 0.00 0.00 58 1011.8
20260904005029 87 92 9.0 18.0 0.00 0.00 0.00 57 1011.8
20260904004529 87 119 4.0 17.0 0.00 0.00 0.00 56 1011.9
20260904004032 88 92 6.0 19.0 0.00 0.00 0.00 55 1011.8
20260904003529 88 98 5.0 19.0 0.00 0.00 0.00 54 1011.7
20260904003033 88 98 9.0 18.0 0.00 0.00 0.00 53 1011.6
20260904002528 89 115 6.0 18.0 0.00 0.00 0.00 52 1011.7
20260904002029 90 82 10.0 21.0 0.00 0.00 0.00 50 1011.6
20260904001528 90 101 8.0 21.0 0.00 0.00 0.00 49 1011.6
20260904001029 91 102 8.0 19.0 0.00 0.00 0.00 47 1011.5
20260904000528 92 99 9.0 19.0 0.00 0.00 0.00 46 1011.4
20260904000028 92 110 6.0 15.0 0.00 0.00 0.00 45 1011.3
20260903235527 92 101 5.0 16.0 0.00 0.00 0.00 45 1011.3
20260903235027 92 146 7.0 15.0 0.00 0.00 0.00 45 1011.2
20260903234538 92 106 6.0 14.0 0.00 0.00 0.00 45 1011.3
20260903234026 92 95 5.0 16.0 0.00 0.00 0.00 45 1011.3
20260903233528 92 98 7.0 16.0 0.00 0.00 0.00 45 1011.3
20260903233032 92 86 5.0 16.0 0.00 0.00 0.00 45 1011.3
20260903232525 93 94 7.0 17.0 0.00 0.00 0.00 44 1011.3
20260903232025 93 107 8.0 13.0 0.00 0.00 0.00 43 1011.2
20260903231527 93 81 5.0 15.0 0.00 0.00 0.00 44 1011.2
20260903231024 94 115 4.0 15.0 0.00 0.00 0.00 42 1011.2
20260903230526 94 107 5.0 18.0 0.00 0.00 0.00 42 1011.1
20260903230032 94 94 8.0 18.0 0.00 0.00 0.00 42 1011.0
20260903225527 94 104 8.0 17.0 0.00 0.00 0.00 42 1011.0
20260903225024 94 81 6.0 14.0 0.00 0.00 0.00 42 1011.0
20260903224524 94 107 8.0 14.0 0.00 0.00 0.00 41 1011.0
20260903224024 96 115 4.0 16.0 0.00 0.00 0.00 40 1010.9
20260903223524 97 149 7.0 16.0 0.00 0.00 0.00 39 1010.9
20260903223022 97 64 4.0 10.0 0.00 0.00 0.00 38 1010.9
20260903222521 97 115 3.0 11.0 0.00 0.00 0.00 37 1010.8
20260903222021 97 118 3.0 11.0 0.00 0.00 0.00 36 1010.8
20260903221520 97 96 4.0 10.0 0.00 0.00 0.00 37 1010.8
20260903221021 97 111 3.0 11.0 0.00 0.00 0.00 38 1010.9
20260903220520 97 101 4.0 10.0 0.00 0.00 0.00 39 1010.9